Regional Weather Roundup
Issued by NWS

Home | Current Version | Previous Version | Graphics & Text | Print | Product List | Glossary On
Versions: 1 2 3 4 5 6 7 8 9 10 11 12 13 14 15 16 17 18 19 20 21 22 23 24 25 26 27 28 29 30 31 32 33 34 35 36 37 38 39 40 41 42 43 44 45 46 47 48 49 50
000
ASUS45 KCYS 030010
RWRWY

WYOMING REGIONAL WEATHER ROUNDUP
NATIONAL WEATHER SERVICE CHEYENNE WY
600 PM MDT MON MAY 02 2016

NOTE:  "FAIR" INDICATES FEW OR NO CLOUDS BELOW 12,000 FEET
WITH NO SIGNIFICANT WEATHER AND/OR OBSTRUCTIONS TO VISIBILITY.

WYZ001-030100-
YELLOWSTONE NATIONAL PARK

CITY           SKY/WX    TMP DP  RH WIND       PRES   REMARKS
LK YELLOWSTONE   N/A     52  16  24 VRB3      30.26S
6HR MIN TEMP:  40; 6HR MAX TEMP:  55;

W YELLOWSTONE  NOT AVBL

$$
WYZ002>013-054>058-071-098>099-030100-
NORTHERN WYOMING

CITY           SKY/WX    TMP DP  RH WIND       PRES   REMARKS
JACKSON        SUNNY     63  16  16 W12       30.19R
CODY           FAIR      63  27  25 N10       30.15R
GREYBULL       FAIR      70  19  14 NW12      30.08S
6HR MIN TEMP:  58; 6HR MAX TEMP:  71;

WORLAND        FAIR      66  19  16 NE5       30.10F
6HR MIN TEMP:  56; 6HR MAX TEMP:  68;

SHERIDAN       FAIR      65  32  29 N18       30.11S
6HR MIN TEMP:  61; 6HR MAX TEMP:  67;

BUFFALO          N/A    N/A N/A N/A MISG      30.13S
GILLETTE       PTSUNNY   60  34  37 N17       30.11R
6HR MIN TEMP:  58; 6HR MAX TEMP:  62;

HULETT         MOCLDY    61  34  36 N15       30.09R
NEWCASTLE      FAIR      61  27  27 NW17G23   30.06S

$$
WYZ014>020-022>026-101>103-030100-
CENTRAL WYOMING

CITY           SKY/WX    TMP DP  RH WIND       PRES   REMARKS
BIG PINEY      FAIR      60   1   9 VRB5      30.20F
6HR MIN TEMP:  49; 6HR MAX TEMP:  60;

PINEDALE       FAIR      59  10  14 NW9       30.19F
DUBOIS         FAIR      59  10  14 SE10      30.18S
LANDER         FAIR      61  24  24 E6        30.14S
6HR MIN TEMP:  51; 6HR MAX TEMP:  63;

RIVERTON       FAIR      60  29  30 NE6       30.16S
6HR MIN TEMP:  51; 6HR MAX TEMP:  62;

CASPER         FAIR      59  28  30 NW15      30.13S
6HR MIN TEMP:  53; 6HR MAX TEMP:  60;

DOUGLAS        FAIR      61  26  26 N22       30.10S
6HR MIN TEMP:  56; 6HR MAX TEMP:  64;


$$
WYZ021-027>030-104>119-030100-
SOUTHERN WYOMING

CITY           SKY/WX    TMP DP  RH WIND       PRES   REMARKS
EVANSTON       FAIR      58  12  16 NE8       30.22S
6HR MIN TEMP:  48; 6HR MAX TEMP:  60;

KEMMERER         N/A     57   9  14 W8        30.23S
FORT BRIDGER   CLEAR     57  14  18 E6        30.25S
ROCK SPRINGS   FAIR      54  15  21 NW8       30.22S
6HR MIN TEMP:  43; 6HR MAX TEMP:  55;

DIXON          FAIR      58  19  22 NW5       30.21R
RAWLINS        FAIR      58  14  17 NW14G21   30.18F
6HR MIN TEMP:  48; 6HR MAX TEMP:  58;

SARATOGA       FAIR      54  12  19 N14G22    30.20S
LARAMIE        FAIR      48  23  37 NW21G29   30.16S
6HR MIN TEMP:  33; 6HR MAX TEMP:  49;

CHEYENNE       FAIR      55  18  23 NW22G30   30.12S
6HR MIN TEMP:  50; 6HR MAX TEMP:  55;

TORRINGTON     PTSUNNY   64  23  21 N22G32    30.02F
6HR MIN TEMP:  56; 6HR MAX TEMP:  66;

PINE BLUFFS    FAIR      57  27  30 NW16      30.09F

$$



USA.gov is the U.S. government's official web portal to all federal, state and local government web resources and services.